Wind_Speed
15 16 16 17 17 18 19 20 22 23 23 22 21 21 20 21 22 22 24 27 25 24 23 20 19 20 20 21 21 21 22 23 23 23 23 24 24 23 23 23 21 20
16 17 17 17 18 19 19 21 23 23 22 22 22 21 20 23 24 22 23 25 22 21 22 20 20 20 20 20 20 20 21 21 22 22 22 23 24 22 21 21 21 20
16 18 18 18 20 21 21 22 22 21 22 23 23 22 21 23 25 23 22 23 20 18 20 21 21 20 19 18 18 19 20 20 21 21 20 19 20 21 19 18 20 21
16 18 18 19 20 21 21 21 21 21 22 24 24 24 23 23 23 21 20 21 22 19 20 20 19 19 18 15 15 17 19 19 20 21 19 17 17 18 19 19 20 22
16 16 17 19 19 20 21 20 19 19 21 23 24 24 24 22 21 19 17 19 22 22 20 18 16 16 15 13 13 15 17 17 17 17 17 16 15 16 17 18 19 20
16 16 17 18 19 20 21 20 19 18 20 22 23 22 21 21 20 18 15 16 20 22 22 20 16 13 12 13 12 13 15 15 12 12 13 14 15 16 16 16 18 18
17 17 17 18 19 20 19 19 19 19 20 22 22 21 20 20 19 16 15 15 17 20 20 17 14 12 12 13 13 12 13 12 10 11 12 12 14 15 14 15 17 19
17 17 18 18 19 19 18 18 19 20 20 22 22 21 19 19 17 14 13 13 13 15 14 11 10 11 12 14 14 13 11 10 10 11 12 13 13 14 15 15 17 20
17 17 18 18 18 18 18 19 20 20 21 22 21 20 19 17 16 15 14 11 8 10 9 7 8 9 11 11 12 11 11 11 12 12 13 14 12 12 16 16 16 19
18 18 19 20 19 19 19 19 20 21 20 21 22 21 19 17 16 15 14 11 9 8 6 4 5 7 8 8 8 10 11 12 12 12 12 13 10 10 13 14 15 18
20 20 22 23 21 21 21 20 21 21 20 21 22 21 20 19 17 15 14 13 12 8 4 3 2 3 4 4 5 7 8 9 9 9 9 10 10 9 10 13 14 14
20 20 22 23 22 22 22 21 22 23 22 22 22 20 20 20 18 17 17 14 13 10 6 3 3 3 2 3 2 2 4 3 4 5 6 6 8 8 7 9 9 7
19 19 20 21 21 21 21 20 21 21 21 22 21 20 21 19 16 18 18 15 14 14 11 8 7 7 6 4 4 3 1 1 2 3 4 4 4 6 6 6 7 7
18 17 18 20 19 19 20 20 20 20 20 20 20 21 20 18 15 16 16 15 15 15 14 11 9 9 8 7 8 7 4 3 4 5 6 7 6 5 4 5 7 9
17 17 17 18 18 19 20 20 20 21 21 20 21 21 21 19 18 18 17 17 16 14 14 14 13 12 11 10 10 9 9 8 7 7 8 9 8 7 6 4 5 8
17 18 18 18 19 19 20 20 21 21 22 22 22 22 22 21 20 21 22 22 20 18 17 17 18 17 13 11 10 10 12 12 9 8 8 5 2 7 7 4 3 5
18 18 19 19 19 20 19 20 21 22 23 23 24 24 24 22 22 22 24 25 24 23 21 20 20 18 15 13 11 11 13 14 13 11 11 10 4 5 5 0 1 3
18 19 19 19 19 19 19 20 22 22 23 23 24 24 25 25 25 25 25 26 26 26 25 24 22 20 18 15 14 13 13 16 18 17 17 17 11 1 2 2 3 1
18 19 19 19 20 19 19 21 22 23 23 23 23 23 25 26 27 28 28 28 28 29 28 26 24 23 20 18 18 16 15 17 18 18 18 19 18 13 7 5 5 6
19 19 19 19 19 19 20 21 22 23 23 24 24 25 26 27 27 29 29 29 30 31 30 28 26 24 23 21 21 19 16 17 17 17 19 20 21 20 17 15 14 14
20 19 20 20 19 19 20 21 23 24 23 25 28 28 27 26 27 30 31 31 31 32 31 29 27 25 23 22 21 19 18 18 18 18 21 23 23 23 23 22 20 18
21 20 20 20 20 20 21 21 22 23 23 24 26 28 28 28 29 32 34 34 34 33 33 32 29 26 24 21 19 18 17 17 17 17 19 22 23 24 23 23 22 20
21 21 21 20 20 21 22 22 22 22 21 22 23 25 27 27 28 33 36 37 36 36 36 35 32 28 24 21 19 18 17 17 17 18 20 22 24 23 22 23 23 22
20 20 20 21 21 21 21 22 23 23 22 22 23 24 25 24 26 30 34 36 37 36 35 35 34 30 25 22 20 19 20 21 20 21 23 24 24 23 21 21 22 22
20 20 21 21 22 23 22 21 21 21 21 21 22 23 24 25 26 28 30 33 35 36 36 35 35 32 27 24 22 20 20 22 22 22 23 23 24 24 22 20 20 21
20 21 22 22 22 23 24 24 24 23 22 22 22 22 22 25 27 28 30 31 32 34 36 36 36 34 31 27 25 22 20 20 21 22 22 22 22 23 24 23 21 21
Wind_Direction
331 329 327 325 320 316 315 316 316 315 314 313 310 305 297 296 297 291 281 280 277 267 262 260 253 247 242 238 233 228 226 223 219 216 214 215 215 214 212 210 209 212
334 333 331 328 323 320 319 320 322 321 320 317 312 306 300 301 302 294 282 281 281 274 269 261 248 245 243 235 229 225 222 220 217 212 211 215 213 210 209 207 205 207
336 335 333 330 328 327 327 328 330 330 327 322 315 309 305 305 303 296 288 284 281 275 266 257 249 246 240 230 225 220 217 219 216 210 209 210 205 203 204 204 203 205
337 335 333 331 330 331 332 335 337 335 333 331 325 319 314 308 300 296 295 290 285 278 268 263 259 248 235 228 226 219 218 220 210 199 198 198 196 200 201 201 203 206
337 334 333 333 333 333 336 340 341 337 337 338 336 333 326 318 306 300 301 294 289 286 276 268 261 248 234 225 225 223 223 221 205 191 191 191 192 198 197 199 206 210
341 338 336 336 336 337 338 341 343 341 340 339 339 339 335 328 320 311 307 297 292 292 282 268 255 243 232 222 220 220 219 215 201 189 186 184 188 195 194 198 207 212
346 342 339 338 339 340 341 344 347 347 345 343 342 341 337 334 331 323 314 309 306 301 287 266 247 233 227 223 216 213 216 208 193 186 182 181 188 191 193 200 208 211
351 345 341 342 345 347 347 348 351 352 350 349 348 344 342 342 345 342 329 321 317 305 284 253 234 227 220 219 215 207 203 196 188 181 177 186 194 193 193 198 207 211
355 348 347 350 352 352 351 350 354 358 357 354 352 350 352 356 0 0 348 336 333 316 288 244 226 225 212 211 211 197 190 194 194 188 184 191 198 202 201 199 209 216
1 357 360 2 360 357 357 356 359 1 1 360 359 359 3 8 10 10 4 360 12 358 314 265 231 232 214 202 202 198 201 204 201 197 197 194 189 202 209 205 214 220
9 8 10 10 9 9 9 7 9 11 9 7 5 5 9 13 15 16 14 17 33 34 346 306 287 260 234 215 210 208 209 212 210 208 206 197 189 197 208 208 215 221
16 14 14 15 14 15 12 10 15 18 16 14 13 15 16 18 24 30 29 33 47 58 56 42 37 20 336 304 287 224 207 219 231 224 222 216 202 200 211 216 220 226
20 16 15 16 16 15 12 10 13 15 16 16 18 22 23 23 33 43 42 41 48 54 57 60 59 53 40 22 12 4 285 276 329 281 269 273 233 223 242 248 246 247
21 19 18 18 18 17 16 14 14 15 17 19 20 25 30 30 33 39 40 42 49 54 54 55 57 51 43 39 30 18 9 357 348 340 327 322 308 284 276 265 252 246
22 22 21 21 21 21 20 20 19 19 22 23 22 28 36 41 41 43 45 48 53 55 51 48 47 41 30 26 27 25 16 355 340 347 344 327 305 286 277 260 233 226
26 26 25 25 25 25 25 24 24 26 29 31 33 35 40 46 47 46 46 47 48 47 44 41 39 37 31 24 24 24 16 6 353 351 4 14 311 278 274 257 219 213
30 29 29 29 29 29 29 28 28 31 33 36 39 41 44 47 48 48 47 46 46 45 42 40 37 36 35 33 30 23 21 27 29 25 30 41 28 282 271 162 145 196
31 30 32 32 32 32 31 31 32 34 34 35 38 39 42 46 48 50 52 51 49 46 44 44 42 37 35 34 33 29 34 43 45 43 43 44 50 89 237 22 31 52
33 33 34 34 33 33 32 33 34 36 35 35 37 40 43 44 45 47 49 51 50 47 45 47 46 45 45 43 38 35 38 44 45 48 52 52 62 80 88 83 91 86
36 36 36 36 35 34 35 35 36 38 38 38 42 45 45 42 42 44 46 49 49 46 47 48 48 50 53 51 46 41 38 42 50 58 60 57 58 67 77 90 101 98
39 38 39 38 37 36 37 38 38 39 41 43 47 49 48 46 44 44 46 48 48 47 47 48 47 49 55 54 50 47 44 46 53 59 62 60 56 60 72 84 92 92
41 42 42 42 41 40 39 38 38 39 40 42 45 48 50 50 48 48 48 48 48 47 46 46 45 45 51 53 51 50 48 48 52 56 60 63 59 58 67 74 79 81
43 45 44 42 42 42 41 41 42 42 39 39 41 44 46 46 46 49 50 50 49 47 45 45 45 45 47 51 55 59 61 63 69 70 68 68 65 64 67 67 67 69
45 45 44 42 41 41 40 41 44 45 44 42 43 45 44 44 45 47 49 50 50 49 47 46 46 46 47 52 57 64 66 66 71 75 73 72 70 70 71 65 61 61
48 46 46 46 44 42 41 40 41 43 44 44 46 46 45 46 47 47 47 48 48 49 50 50 48 45 45 48 52 58 62 62 65 68 69 69 69 70 73 69 61 58
49 48 48 48 46 46 46 46 46 46 48 48 48 48 48 47 48 49 49 48 47 47 49 50 50 48 46 47 47 48 53 59 61 59 58 60 62 62 65 66 62 58
Height
799 798 798 797 797 796 795 794 793 792 790 789 788 787 786 785 785 784 783 782 780 780 780 780 779 780 780 780 780 781 782 783 784 785 786 788 790 792 793 795 797 799
799 799 798 797 796 796 795 794 793 791 789 788 787 786 784 783 783 782 781 780 778 778 779 779 778 778 779 779 779 779 780 781 782 783 784 785 788 790 792 794 795 797
800 799 798 798 797 796 795 794 792 791 789 787 786 784 783 782 780 779 779 778 777 777 777 777 776 777 778 778 778 778 778 779 779 781 783 784 787 789 790 792 794 796
800 800 798 798 797 796 795 793 792 790 788 786 784 782 781 780 778 776 777 777 776 776 776 775 775 775 776 777 777 777 777 777 777 779 781 783 786 788 789 791 792 794
801 800 799 798 796 796 794 793 791 789 787 785 783 781 779 778 777 775 775 776 775 775 776 775 775 775 775 776 776 776 775 775 776 777 779 781 784 786 788 789 790 791
801 800 799 798 796 795 794 792 791 790 787 785 783 781 779 777 776 774 773 773 774 775 775 775 775 774 775 775 775 775 774 775 776 777 778 780 783 785 786 788 789 790
801 800 798 797 796 795 794 792 791 789 787 785 782 780 778 776 774 773 772 771 770 773 775 775 774 774 775 775 775 775 774 775 776 778 779 780 782 784 785 787 789 790
801 800 799 797 796 795 793 792 791 789 787 785 782 780 778 776 774 773 771 768 768 771 775 776 776 776 776 775 775 775 774 775 776 777 778 779 781 782 784 785 788 789
802 800 799 798 796 795 793 792 791 789 787 785 782 780 778 777 775 773 771 768 768 771 775 777 778 778 777 776 776 775 775 775 776 777 777 778 779 781 783 784 787 788
803 801 800 798 796 795 794 793 791 789 787 785 782 781 779 777 776 774 772 771 771 773 776 778 779 779 779 778 777 776 776 776 776 777 777 778 779 781 782 784 785 787
804 802 801 799 798 796 795 794 792 789 787 785 783 781 780 778 777 776 775 774 774 775 778 780 781 781 780 779 778 777 777 777 777 778 778 778 780 781 782 784 785 785
805 804 802 800 799 798 796 795 793 791 788 786 784 782 780 779 779 778 777 777 777 778 779 780 781 782 781 781 780 778 778 778 778 778 778 778 780 781 782 783 784 785
806 805 804 802 801 799 798 796 794 792 790 788 786 784 782 781 781 780 780 780 780 780 781 782 781 781 781 781 781 779 779 779 779 779 779 779 780 780 781 782 783 785
808 807 805 804 803 801 799 798 796 794 792 790 788 786 785 784 783 782 782 783 783 782 783 783 782 782 781 781 781 780 780 780 779 779 779 779 779 780 781 782 783 785
810 808 807 806 804 803 801 800 798 796 794 792 790 789 788 786 785 785 785 785 785 784 783 783 783 783 783 782 781 781 781 781 780 779 779 779 779 780 782 783 783 785
811 810 808 807 806 805 804 802 800 798 796 794 793 791 790 788 788 787 787 787 786 785 785 784 784 784 784 783 783 782 782 781 780 781 781 781 782 782 783 784 784 785
813 811 810 809 808 807 806 804 803 801 799 797 795 794 792 791 790 790 790 790 789 788 787 785 785 786 785 785 784 784 783 783 783 783 783 784 784 784 784 785 786 787
814 813 812 811 810 809 808 807 805 803 802 800 799 797 796 794 793 793 793 793 792 791 789 788 788 787 786 786 786 785 785 785 785 785 785 786 787 787 787 787 788 790
817 815 814 813 812 812 811 809 807 806 805 803 802 801 799 798 797 796 796 795 794 793 792 791 790 790 789 788 787 787 787 786 786 788 788 789 790 790 790 791 791 792
818 817 816 816 815 814 813 811 810 809 808 806 805 804 803 801 801 799 799 798 797 796 795 794 793 793 791 790 789 789 789 789 788 789 790 791 791 791 791 792 793 794
820 820 819 818 818 817 815 814 813 812 811 810 808 807 807 806 805 803 802 801 800 799 798 797 796 796 793 792 792 792 792 791 791 791 792 792 792 792 792 794 795 795
823 822 822 821 820 819 818 817 816 815 814 814 812 811 811 809 808 807 806 805 804 802 801 800 799 798 796 795 795 795 794 794 793 794 794 794 794 794 794 796 797 796
826 825 825 824 823 821 821 820 819 819 818 817 816 815 814 813 812 811 810 809 807 806 805 803 802 801 799 799 798 797 797 796 796 796 796 796 796 797 798 799 799 799
829 829 828 827 825 824 824 824 823 822 822 821 820 819 818 818 817 815 814 812 811 810 809 807 806 805 804 802 801 800 799 799 799 798 798 799 800 800 801 802 802 802
832 832 831 830 829 828 828 827 826 826 825 824 823 823 822 822 820 819 818 817 816 815 813 811 810 809 808 806 805 804 803 802 802 801 801 802 803 804 804 805 805 805
835 835 834 832 832 831 831 831 830 829 828 828 827 826 826 825 824 823 822 821 820 819 817 815 814 813 812 810 809 808 808 807 806 806 806 807 808 808 807 807 808 808